User: anonymous   Login
Location: Unspecified
(0.0000°N, 0.0000°E)
Time: 10:36:23
(UTC+02:00)
Language:

ARIANE 5 R/B - Orbit

View from above orbital plane
View from above orbital plane
View from above satellite
View from above satellite

Ground track
Ground track

The orbit data is extracted from the following two-line orbital elements,

1 29646U 06054D   16208.75767642  .00005991  00000-0  10991-2 0  9999
2 29646   2.7473 110.5797 7118442  21.8290 357.3288  2.49695085 83545
Epoch (UTC): 26 July 2016 18:11:03
Eccentricity: 0.7118442
inclination: 2.7473°
perigee height: 235 km
apogee height: 32909 km
right ascension of ascending node: 110.5797°
argument of perigee: 21.8290°
revolutions per day: 2.49695085
mean anomaly at epoch: 357.3288°
orbit number at epoch: 8354

The dashed part of the orbit path shows where the satellite is in the earth's shadow,  

DLR